Tracking 32136 objects as of 11-Nov-2025
HD Live streaming from Space Station
objects crossing your sky now

ECHO 1 DEB (METAL OBJ)

Track ECHO 1 DEB (METAL OBJ) now!
10-day predictions


NORAD ID: 51
Int'l Code: 1960-009C
Perigee: 1,518.5 km
Apogee: 1,695.1 km
Inclination: 47.2 °
Period: 118.2 minutes
Semi major axis: 7977 km
RCS: 0.6323 m2 (medium)
Launch date: August 12, 1960
Source: United States (US)
Launch site: AIR FORCE EASTERN TEST RANGE (AFETR)

Note: This is SATELLITE DEBRIS
Your satellite tracking list
Your tracking list is empty




NASA's NSSDC Master Catalog

Two Line Element Set (TLE):
1 00051U 60009C   25314.53366170  .00000020  00000-0  99938-3 0  9990
2 00051  47.2158   5.9513 0110678 265.6619  93.1516 12.18372883904513
Source of the keplerian elements: AFSPC